User: anonymous   Login
Location: Young's Pond
(41.2695°N, 72.7766°W)
Time: 06:18:41
(UTC-04:00)
Language:

Spot 4 - Orbit

View from above orbital plane
View from above orbital plane
View from above satellite
View from above satellite

Ground track
Ground track

The orbit data is extracted from the following two-line orbital elements,

1 25260U 98017A   15142.52800653  .00000434  00000-0  11552-3 0  9990
2 25260 098.4174 213.6802 0014275 078.1447 282.1351 14.53267898891948
Epoch (UTC): 22 May 2015 12:40:19
Eccentricity: 0.0014275
inclination: 98.4174°
perigee height: 705 km
apogee height: 725 km
right ascension of ascending node: 213.6802°
argument of perigee: 78.1447°
revolutions per day: 14.53267898
mean anomaly at epoch: 282.1351°
orbit number at epoch: 89194

The dashed part of the orbit path shows where the satellite is in the earth's shadow,  

DLR